Powrót do katalogu

JCSAT 16

AktywnyŁącznośćGEO
NORAD 41729·PAYLOAD·🇯🇵 Japan

Wystrzelony Aug 14, 2016 z Cape Canaveral Space Force Station

Loading…

TLE

ŚwieżeSource: Space-Track

Epoka: Sep 14, 2026, 10:33 UTC

1 41729U 16050A   26257.44003122 -.00000259  00000-0  00000-0 0  9990
2 41729   0.0192 157.4981 0001007   7.6071 130.6828  1.00271249 36969

Śledź JCSAT 16 w czasie rzeczywistym z AllMySat

Download on the App Store